Regional Weather Roundup
Issued by NWS

Home | Current Version | Previous Version | Graphics & Text | Print | Product List | Glossary On
Versions: 1 2 3 4 5 6 7 8 9 10 11 12 13 14 15 16 17 18 19 20 21 22 23 24 25 26 27 28 29 30 31 32 33 34 35 36 37 38 39 40 41 42 43 44 45 46 47 48 49 50
000
ASUS45 KSLC 270410
RWRUT

UTAH REGIONAL WEATHER ROUNDUP
NATIONAL WEATHER SERVICE SALT LAKE CITY UT
900 PM MST THU FEB 26 2015

UTZ001>011-023>025-270500-

NORTHERN UTAH

CITY           SKY/WX    TMP DP  RH WIND       PRES   REMARKS
BRIGHAM CITY   CLEAR     32  28  85 N3        29.92S
HILL AFB       MOCLDY    32  32  98 N1        29.90F
LOGAN          CLEAR     28  22  78 NE3       29.91F
OGDEN          PTCLDY    31  28  89 E5        29.90F WCI  26
PROVO AIRPORT  MOCLDY    34  30  86 CALM      29.92S
SALT LAKE CITY MOCLDY    34  30  85 W6        29.91S WCI  29
VERNAL         MOCLDY    29  17  61 NE8       29.87S WCI  21
WENDOVER       CLOUDY    39  25  56 N5        29.93S
HEBER CITY     CLOUDY    32  23  69 CALM      29.87R
WEST JORDAN    CLOUDY    32  30  93 W3        29.92S

$$

UTZ012>022-026-027-270500-

SOUTHERN/CENTRAL UTAH

CITY           SKY/WX    TMP DP  RH WIND       PRES   REMARKS
BLANDING       CLEAR     21  21 100 N5        29.93S WCI  14
BRYCE CANYON   LGT SNOW  27  23  85 W9        29.88R FOG     WCI  18
CEDAR CITY     MOCLDY    35  26  69 N12       29.89S WCI  27
DELTA          CLOUDY    34  25  69 NW3       29.91S
HANKSVILLE     CLEAR     28  27  93 CALM      29.89S
MILFORD        CLOUDY    35  25  66 W8        29.91S WCI  29
MOAB/CYNLANDS  CLOUDY    37  28  70 SW6       29.85R WCI  32
PRICE          LGT SNOW  31  28  89 CALM      29.85R FOG
ST GEORGE      PTCLDY    52  27  37 NE20G28   29.85R
KANAB            N/A     39  27  60 NW14      29.90R WCI  31

$$

REGIONAL REPORTS     COLORADO/ARIZONA

CITY           SKY/WX    TMP DP  RH WIND       PRES   REMARKS
CRAIG, CO      LGT SNOW  25  20  81 N8        29.87S WCI  16
GRAND JUNCTION CLOUDY    36  24  62 S5        29.84F WCI  32
RIFLE          CLOUDY    32  25  75 E5        29.84S WCI  27
MONTROSE       CLOUDY    29  22  75 CALM      29.87S
CORTEZ         SNOW      31  30  96 CALM      29.86S VSB 1/2
PAGE, AZ       PTCLDY    41  30  65 SE6       29.85R
GRAND CANYON   CLEAR     27  22  81 CALM      29.89R
KINGMAN        CLEAR     43  27  53 SE7       29.83S
FLAGSTAFF      PTCLDY    35  16  45 W5        29.88S WCI  31

$$

REGIONAL REPORTS    NEVADA/IDAHO/WYOMING

CITY           SKY/WX    TMP DP  RH WIND       PRES   REMARKS
LAS VEGAS, NV  CLEAR     61  23  23 VRB3      29.74R
ELY            CLOUDY    34  19  54 N5        29.93S WCI  30
ELKO           CLOUDY    35  26  69 NE3       29.93F
POCATELLO, ID  CLOUDY    34  23  64 E5        29.92S WCI  30
BURLEY         CLOUDY    33  31  92 S10       29.90F WCI  25
EVANSTON, WY   LGT SNOW  22  20  92 CALM      29.86F FOG
ROCK SPRINGS   CLOUDY     8   3  80 NE23      29.94S WCI -13

$$



USA.gov is the U.S. government's official web portal to all federal, state and local government web resources and services.